Location: Laan Hart van Zuid
(52.2563°N, 6.7904°E)
Time: 02:40:26
(UTC+02:00)

ISS - Visible Passes

Search period start: 21 May 2024 00:00
Search period end: 31 May 2024 00:00
Orbit: 409 x 414 km, 51.6° (Epoch: 20 May)

Date Brightness Start Highest point End Pass type
(mag) Time Alt. Az. Time Alt. Az. Time Alt. Az.
21 May -3.6 22:33:30 10° W 22:36:47 58° SSW 22:40:02 10° ESE visible
22 May -2.0 00:10:33 10° W 00:12:49 19° SW 00:12:49 19° SW visible
22 May -2.5 23:20:17 10° W 23:23:09 27° SSW 23:24:32 20° S visible
23 May -3.0 22:30:07 10° W 22:33:13 37° SSW 22:36:13 11° SE visible
24 May -1.6 23:17:18 10° WSW 23:19:17 15° SW 23:20:39 12° S visible
25 May -2.1 22:26:42 10° W 22:29:20 22° SSW 22:31:57 10° SSE visible
